Roxboro, NC

10:13 AM EDT on June 26, 2017 (GMT -0400)
Person County

Weather History for KTDF - October, 2010

Change the Weather History Date:

Friday, October 22, 2010

  Actual Average Record
Temperature  
Mean Temperature 52 °F -  
Max Temperature 64 °F 67 °F 87 °F (2001)
Min Temperature 39 °F 41 °F 22 °F (1974)
Degree Days  
Heating Degree Days 14    
Growing Degree Days 2 (Base 50)    
Moisture  
Dew Point 34 °F    
Average Humidity 60    
Maximum Humidity 100    
Minimum Humidity 26    
Precipitation  
Precipitation 0.00 in - - ()
Sea Level Pressure  
Sea Level Pressure 30.10 in    
Wind  
Wind Speed 2 mph (NW)    
Max Wind Speed 12 mph    
Max Gust Speed 16 mph    
Visibility 10 miles    
Events      
Averages and records for this station are not official NWS values.
T = Trace of Precipitation, MM = Missing Value Source: NWS Daily Summary

Daily Weather History Graph

Daily Weather History Graph

Search for Another Location

Airport or City:

Trip Planner

Search our weather history database for the weather conditions in past years. The results will help you decide how hot, cold, wet, or windy it might be!

Date:

Astronomy

Oct. 22, 2010 Rise Set
Actual Time 7:29 AM EDT 6:30 PM EDT
Civil Twilight 7:03 AM EDT 6:57 PM EDT
Nautical Twilight 6:33 AM EDT 7:27 PM EDT
Astronomical Twilight 6:03 AM EDT 7:56 PM EDT
Moon 6:01 PM EDT (10/22) 7:05 AM EDT (10/22)
Length of Visible Light 11h 53m
Length of Day
11h 01m
Full, 100% of the Moon is Illuminated
Oct 22
Full
Oct 22
Full
Oct 30
Last Quarter
Nov 6
New
Nov 13
First Quarter

Hourly Weather History & Observations

Time (EDT) Temp. Windchill Dew Point Humidity Pressure Visibility Wind Dir Wind Speed Gust Speed Precip Events Conditions
12:01 AM 44.6 °F - 44.6 °F 100% 29.95 in 10.0 mi Calm Calm - N/A   Clear
12:22 AM 44.6 °F - 42.8 °F 93% 29.96 in 10.0 mi Calm Calm - N/A   Clear
12:42 AM 44.6 °F - 42.8 °F 93% 29.96 in 10.0 mi Calm Calm - N/A   Clear
1:02 AM 42.8 °F - 42.8 °F 100% 29.96 in 10.0 mi Calm Calm - N/A   Clear
1:22 AM 42.8 °F - 42.8 °F 100% 29.96 in 10.0 mi Calm Calm - N/A   Clear
1:42 AM 42.8 °F - 42.8 °F 100% 29.97 in 10.0 mi Calm Calm - N/A   Clear
2:02 AM 42.8 °F - 42.8 °F 100% 29.98 in 10.0 mi Calm Calm - N/A   Clear
2:22 AM 42.8 °F - 42.8 °F 100% 29.99 in 10.0 mi Calm Calm - N/A   Clear
2:42 AM 41.0 °F - 41.0 °F 100% 29.99 in 10.0 mi Calm Calm - N/A   Clear
3:02 AM 39.2 °F - 39.2 °F 100% 30.00 in 10.0 mi Calm Calm - N/A   Clear
3:22 AM 41.0 °F - 41.0 °F 100% 30.00 in 5.0 mi Calm Calm - N/A   Clear
3:42 AM 41.0 °F - 41.0 °F 100% 30.01 in 10.0 mi Calm Calm - N/A   Clear
4:02 AM 39.2 °F - 39.2 °F 100% 30.01 in 7.0 mi Calm Calm - N/A   Clear
4:22 AM 39.2 °F - 39.2 °F 100% 30.02 in 7.0 mi Calm Calm - N/A   Clear
4:42 AM 39.2 °F - 39.2 °F 100% 30.04 in 10.0 mi Calm Calm - N/A   Clear
5:02 AM 39.2 °F - 37.4 °F 93% 30.05 in 10.0 mi Calm Calm - N/A   Clear
5:22 AM 39.2 °F - 39.2 °F 100% 30.05 in 10.0 mi Calm Calm - N/A   Clear
5:42 AM 39.2 °F - 39.2 °F 100% 30.06 in 10.0 mi Calm Calm - N/A   Clear
6:02 AM 42.8 °F 40.1 °F 39.2 °F 87% 30.07 in 10.0 mi NNW 4.6 mph - N/A   Clear
6:22 AM 46.4 °F - 35.6 °F 66% 30.08 in 10.0 mi Calm Calm - N/A   Clear
6:42 AM 42.8 °F - 35.6 °F 76% 30.09 in 10.0 mi Calm Calm - N/A   Clear
7:02 AM 42.8 °F - 33.8 °F 70% 30.10 in 10.0 mi Calm Calm - N/A   Clear
7:23 AM 44.6 °F 40.7 °F 33.8 °F 66% 30.10 in 10.0 mi NNW 6.9 mph - N/A   Clear
7:43 AM 44.6 °F 43.1 °F 33.8 °F 66% 30.10 in 10.0 mi NW 3.5 mph - N/A   Clear
8:02 AM 46.4 °F 45.2 °F 32.0 °F 57% 30.11 in 10.0 mi NW 3.5 mph - N/A   Clear
8:24 AM 48.2 °F - 32.0 °F 54% 30.12 in 10.0 mi Calm Calm - N/A   Clear
8:42 AM 50.0 °F - 33.8 °F 54% 30.13 in 10.0 mi Calm Calm - N/A   Clear
9:02 AM 51.8 °F - 33.8 °F 50% 30.14 in 10.0 mi NW 3.5 mph - N/A   Clear
9:22 AM 53.6 °F - 32.0 °F 44% 30.15 in 10.0 mi WNW 8.1 mph - N/A   Clear
9:42 AM 53.6 °F - 32.0 °F 44% 30.16 in 10.0 mi NNW 5.8 mph - N/A   Clear
10:02 AM 55.4 °F - 30.2 °F 38% 30.17 in 10.0 mi NNW 9.2 mph - N/A   Clear
10:22 AM 55.4 °F - 30.2 °F 38% 30.17 in 10.0 mi NW 11.5 mph 16.1 mph N/A   Clear
10:42 AM 57.2 °F - 30.2 °F 36% 30.18 in 10.0 mi WNW 9.2 mph - N/A   Clear
11:02 AM 57.2 °F - 30.2 °F 36% 30.18 in 10.0 mi WNW 6.9 mph - N/A   Clear
11:23 AM 59.0 °F - 32.0 °F 36% 30.18 in 10.0 mi WNW 5.8 mph - N/A   Clear
11:42 AM 59.0 °F - 30.2 °F 34% 30.18 in 10.0 mi WNW 6.9 mph - N/A   Clear
12:03 PM 59.0 °F - 30.2 °F 34% 30.19 in 10.0 mi NW 6.9 mph - N/A   Clear
12:23 PM 60.8 °F - 30.2 °F 31% 30.19 in 10.0 mi NNW 6.9 mph - N/A   Clear
12:46 PM 62.6 °F - 30.2 °F 30% 30.19 in 10.0 mi NNW 6.9 mph 16.1 mph N/A   Clear
1:02 PM 62.6 °F - 28.4 °F 27% 30.18 in 10.0 mi NNW 8.1 mph - N/A   Clear
1:22 PM 62.6 °F - 28.4 °F 27% 30.17 in 10.0 mi NNW 6.9 mph - N/A   Clear
1:42 PM 60.8 °F - 28.4 °F 29% 30.16 in 10.0 mi North 8.1 mph - N/A   Clear
2:02 PM 62.6 °F - 28.4 °F 27% 30.16 in 10.0 mi NNW 8.1 mph - N/A   Clear
2:22 PM 62.6 °F - 28.4 °F 27% 30.15 in 10.0 mi NW 5.8 mph 9.2 mph N/A   Clear
2:42 PM 62.6 °F - 28.4 °F 27% 30.15 in 10.0 mi NNW 5.8 mph - N/A   Clear
3:02 PM 62.6 °F - 28.4 °F 27% 30.15 in 10.0 mi North 6.9 mph - N/A   Clear
3:24 PM 62.6 °F - 26.6 °F 26% 30.15 in 10.0 mi North 8.1 mph - N/A   Clear
3:43 PM 62.6 °F - 28.4 °F 27% 30.15 in 10.0 mi Calm Calm - N/A   Clear
4:02 PM 64.4 °F - 28.4 °F 26% 30.15 in 10.0 mi NNW 5.8 mph - N/A   Clear
4:22 PM 64.4 °F - 28.4 °F 26% 30.15 in 10.0 mi WNW 4.6 mph - N/A   Clear
4:42 PM 62.6 °F - 28.4 °F 27% 30.16 in 10.0 mi NW 3.5 mph - N/A   Clear
5:01 PM 62.6 °F - 28.4 °F 27% 30.16 in 10.0 mi North 5.8 mph - N/A   Clear
5:21 PM 62.6 °F - 28.4 °F 27% 30.17 in 10.0 mi Calm Calm - N/A   Clear
5:41 PM 62.6 °F - 30.2 °F 30% 30.17 in 10.0 mi Calm Calm - N/A   Clear
6:01 PM 57.2 °F - 35.6 °F 44% 30.17 in 10.0 mi NW 3.5 mph - N/A   Clear
6:21 PM 53.6 °F - 39.2 °F 58% 30.17 in 10.0 mi Calm Calm - N/A   Clear
6:41 PM 51.8 °F - 39.2 °F 62% 30.18 in 10.0 mi Calm Calm - N/A   Clear
7:01 PM 50.0 °F - 37.4 °F 62% 30.19 in 10.0 mi Calm Calm - N/A   Clear
7:21 PM 46.4 °F - 39.2 °F 76% 30.19 in 10.0 mi Calm Calm - N/A   Clear
7:42 PM 46.4 °F - 39.2 °F 76% 30.20 in 10.0 mi Calm Calm - N/A   Clear
8:01 PM 44.6 °F - 39.2 °F 81% 30.20 in 10.0 mi Calm Calm - N/A   Clear
8:21 PM 44.6 °F - 37.4 °F 76% 30.21 in 10.0 mi Calm Calm - N/A   Clear
8:41 PM 42.8 °F - 39.2 °F 87% 30.21 in 10.0 mi Calm Calm - N/A   Clear
9:01 PM 42.8 °F - 39.2 °F 87% 30.21 in 10.0 mi Calm Calm - N/A   Clear
9:46 PM 41.0 °F - 39.2 °F 93% 30.23 in 10.0 mi Calm Calm - N/A   Clear
10:01 PM 39.2 °F - 39.2 °F 100% 30.24 in 10.0 mi Calm Calm - N/A   Clear
10:21 PM 39.2 °F - 39.2 °F 100% 30.24 in 10.0 mi Calm Calm - N/A   Clear
10:41 PM 39.2 °F - 39.2 °F 100% 30.24 in 10.0 mi Calm Calm - N/A   Clear
11:01 PM 39.2 °F - 39.2 °F 100% 30.25 in 10.0 mi Calm Calm - N/A   Clear
11:21 PM 39.2 °F - 39.2 °F 100% 30.25 in 10.0 mi Calm Calm - N/A   Clear
11:41 PM 39.2 °F - 39.2 °F 100% 30.25 in 10.0 mi Calm Calm - N/A   Clear